Location: Carr Mill
(33.2054°N, 85.9439°W)
Time: 21:42:47
(UTC+00:00)

Tianhe-1 - Visible Passes

Search period start: 19 June 2021 00:00
Search period end: 29 June 2021 00:00
Orbit: 375 x 386 km, 41.5° (Epoch: 19 June)

Date Brightness Start Highest point End Pass type
(mag) Time Alt. Az. Time Alt. Az. Time Alt. Az.
19 Jun 2.8 08:24:12 28° E 08:24:12 28° E 08:26:04 10° ENE visible
19 Jun 2.4 09:56:59 10° W 09:59:53 33° NNW 10:02:48 10° NE visible
20 Jun 1.5 08:58:01 40° WNW 08:58:49 55° NNW 09:01:56 10° NE visible
21 Jun 3.4 07:59:41 22° ENE 07:59:41 22° ENE 08:00:58 10° ENE visible
21 Jun 3.0 09:32:09 10° WNW 09:34:48 24° NNW 09:37:27 10° NE visible
22 Jun 2.3 08:33:26 33° NNW 08:33:39 34° NNW 08:36:35 10° NE visible
23 Jun 4.2 07:35:04 15° NE 07:35:04 15° NE 07:35:41 10° NE visible
23 Jun 3.5 09:07:19 10° WNW 09:09:43 20° N 09:12:07 10° NE visible
24 Jun 3.2 08:08:47 24° N 08:08:47 24° N 08:11:10 10° NE visible
24 Jun 3.8 09:43:38 10° NW 09:45:53 18° N 09:48:09 10° NE visible
25 Jun 3.7 08:42:32 11° NW 08:44:38 18° N 08:46:52 10° NE visible
26 Jun 3.9 07:44:12 18° NNE 07:44:12 18° NNE 07:45:46 10° NE visible
26 Jun 3.7 09:18:23 10° NW 09:20:47 20° N 09:23:10 10° ENE visible
27 Jun 3.8 08:18:04 14° NNW 08:19:30 18° N 08:21:44 10° NE visible
27 Jun 2.8 09:53:53 10° NW 09:56:48 34° NNE 09:59:42 10° E visible
28 Jun 4.5 07:19:58 12° NE 07:19:58 12° NE 07:20:26 10° NE visible
28 Jun 3.4 08:52:57 10° NW 08:55:35 24° NNE 08:58:13 10° ENE visible
